Torna al catalogo

TITAN 3C TRANSTAGE DEB

AttivoHEO
NORAD 26777·DEBRIS·🇺🇸 United States

Lanciato Dec 21, 1965 da Cape Canaveral Space Force Station

Loading…

Prossimi Passaggi (prossime 24 ore)

TLE

AggiornatoSource: Space-Track

Epoca: Sep 13, 2026, 00:03 UTC

1 26777U 65108AV  26256.00232066 -.00000005  00000-0  00000-0 0  9995
2 26777  26.6768 162.1743 6692328 131.5814 356.1940  2.56629022 48294

Traccia TITAN 3C TRANSTAGE DEB in tempo reale con AllMySat

Download on the App Store